Location: ?????????
(44.2517°N, 135.2292°E)
Time: 02:35:10
(UTC+00:00)

Cosmos 1812 Rocket - Pass Details

Date: 19 May 2025
Orbit: 601 x 624 km, 82.5° (Epoch: 13 June)

Event Time Altitude Azimuth Distance (km) Brightness Sun altitude
Exits shadow 12:44:00 39° 184° (S) 909 4.0 -19.2°
Maximum altitude 12:45:34 87° 102° (ESE) 608 3.4 -19.3°
Drops below altitude 10° 12:49:54 10° 9° (N) 1,955 6.8 -19.7°
Sets 12:52:07 0° 9° (N) 2,865 7.8 -19.9°
